• Em Portugal
  • Lista de países
  • Para 7 dias
  • Temperatura da água
  • Mapas de satélite
  • Mapa do tempo
  • Widgets de tempo
  • user-avatar
    Iniciar Sessão

    Previsão horária em São Miguel de Tucumán

    Hoje, 27 Maio, Domingo

    Tempo Temperatura Precipitação Vento Pressão Humidade
    00:00 +19°C° 0 mm 1 m/s 718 mmHg 67%
    01:00 +18°C° 0 mm 1 m/s 718 mmHg 65%
    02:00 +18°C° 0 mm 1 m/s 718 mmHg 64%
    03:00 +18°C° 0 mm 1 m/s 718 mmHg 63%
    04:00 +18°C° 0 mm 1 m/s 718 mmHg 62%
    05:00 +18°C° 0 mm 1 m/s 718 mmHg 62%
    06:00 +18°C° 0 mm 1 m/s 718 mmHg 62%
    07:00 +19°C° 0 mm 1 m/s 719 mmHg 63%
    08:00 +19°C° 0 mm 1 m/s 719 mmHg 63%
    09:00 +21°C° 0 mm 1 m/s 720 mmHg 60%
    10:00 +23°C° 0 mm 1 m/s 720 mmHg 56%
    11:00 +25°C° 0 mm 1 m/s 720 mmHg 53%
    12:00 +26°C° 0 mm 1 m/s 719 mmHg 52%
    13:00 +27°C° 0 mm 2 m/s 719 mmHg 50%
    14:00 +28°C° 0 mm 2 m/s 718 mmHg 49%
    15:00 +27°C° 0 mm 2 m/s 718 mmHg 55%
    16:00 +26°C° 0 mm 1 m/s 717 mmHg 61%
    17:00 +25°C° 0 mm 1 m/s 717 mmHg 67%
    18:00 +24°C° 0 mm 1 m/s 717 mmHg 71%
    19:00 +23°C° 0 mm 1 m/s 717 mmHg 75%
    20:00 +20°C° 0 mm 2 m/s 717 mmHg 80%
    21:00 +20°C° 0 mm 2 m/s 717 mmHg 79%
    22:00 +20°C° 0 mm 2 m/s 717 mmHg 79%
    23:00 +20°C° 0 mm 2 m/s 717 mmHg 79%

    Amanhã, 28 Maio, Segunda-feira

    Tempo Temperatura Precipitação Vento Pressão Humidade
    00:00 +20°C° 0 mm 2 m/s 717 mmHg 77%
    01:00 +20°C° 0 mm 2 m/s 716 mmHg 75%
    02:00 +20°C° 0 mm 2 m/s 716 mmHg 73%
    03:00 +20°C° 0 mm 2 m/s 716 mmHg 71%
    04:00 +19°C° 0 mm 2 m/s 715 mmHg 68%
    05:00 +19°C° 0 mm 2 m/s 715 mmHg 66%
    06:00 +20°C° 0 mm 2 m/s 715 mmHg 65%
    07:00 +20°C° 0 mm 2 m/s 716 mmHg 64%
    08:00 +21°C° 0 mm 2 m/s 716 mmHg 62%
    09:00 +24°C° 0 mm 3 m/s 716 mmHg 58%
    10:00 +26°C° 0 mm 3 m/s 716 mmHg 54%
    11:00 +29°C° 0 mm 4 m/s 716 mmHg 49%
    12:00 +30°C° 0 mm 4 m/s 716 mmHg 48%
    13:00 +30°C° 0 mm 4 m/s 715 mmHg 47%
    14:00 +32°C° 0 mm 4 m/s 715 mmHg 46%
    15:00 +30°C° 0 mm 3 m/s 715 mmHg 51%
    16:00 +29°C° 0 mm 3 m/s 715 mmHg 56%
    17:00 +28°C° 0 mm 2 m/s 715 mmHg 61%
    18:00 +27°C° 0 mm 2 m/s 715 mmHg 63%
    19:00 +25°C° 0 mm 2 m/s 716 mmHg 64%
    20:00 +24°C° 0 mm 2 m/s 716 mmHg 65%
    21:00 +24°C° 0 mm 2 m/s 716 mmHg 62%
    22:00 +23°C° 0 mm 2 m/s 716 mmHg 60%
    23:00 +23°C° 0 mm 2 m/s 717 mmHg 58%

    Depois de amanhã, 29 Maio, Terça-feira

    Tempo Temperatura Precipitação Vento Pressão Humidade
    00:00 +23°C° 0 mm 2 m/s 716 mmHg 57%
    01:00 +21°C° 0 mm 2 m/s 716 mmHg 55%
    02:00 +21°C° 0 mm 2 m/s 716 mmHg 54%
    03:00 +21°C° 0 mm 2 m/s 715 mmHg 53%
    04:00 +21°C° 0 mm 2 m/s 715 mmHg 53%
    05:00 +20°C° 0 mm 2 m/s 715 mmHg 53%
    06:00 +21°C° 0 mm 2 m/s 715 mmHg 53%
    07:00 +21°C° 0 mm 2 m/s 715 mmHg 53%
    08:00 +21°C° 0 mm 2 m/s 716 mmHg 53%
    09:00 +25°C° 0 mm 2 m/s 716 mmHg 50%
    10:00 +27°C° 0 mm 2 m/s 716 mmHg 47%
    11:00 +30°C° 0 mm 2 m/s 716 mmHg 43%
    12:00 +30°C° 0 mm 2 m/s 715 mmHg 43%
    13:00 +31°C° 0 mm 2 m/s 715 mmHg 42%
    14:00 +32°C° 0 mm 2 m/s 714 mmHg 41%
    15:00 +30°C° 0 mm 2 m/s 714 mmHg 48%
    16:00 +29°C° 0 mm 2 m/s 714 mmHg 56%
    17:00 +28°C° 0 mm 1 m/s 714 mmHg 63%
    18:00 +26°C° 0 mm 1 m/s 714 mmHg 65%
    19:00 +25°C° 0 mm 1 m/s 714 mmHg 66%
    20:00 +24°C° 0 mm 1 m/s 715 mmHg 67%
    21:00 +24°C° 0 mm 1 m/s 715 mmHg 66%
    22:00 +23°C° 0 mm 1 m/s 716 mmHg 65%
    23:00 +23°C° 0 mm 1 m/s 716 mmHg 64%

    30 Maio, Quarta-feira

    Tempo Temperatura Precipitação Vento Pressão Humidade
    00:00 +22°C° 0 mm 1 m/s 716 mmHg 63%
    01:00 +22°C° 0 mm 1 m/s 717 mmHg 62%
    02:00 +22°C° 0 mm 1 m/s 717 mmHg 61%
    03:00 +21°C° 0 mm 2 m/s 717 mmHg 61%
    04:00 +20°C° 0 mm 2 m/s 717 mmHg 62%
    05:00 +20°C° 0 mm 2 m/s 718 mmHg 62%
    06:00 +20°C° 0 mm 2 m/s 719 mmHg 65%
    07:00 +20°C° 0 mm 3 m/s 720 mmHg 69%
    08:00 +20°C° 0 mm 3 m/s 721 mmHg 72%
    09:00 +19°C° 0,2 mm 3 m/s 721 mmHg 76%
    10:00 +18°C° 0,2 mm 3 m/s 722 mmHg 80%
    11:00 +17°C° 0,2 mm 3 m/s 722 mmHg 83%
    12:00 +17°C° 0,1 mm 3 m/s 722 mmHg 82%
    13:00 +17°C° 0,1 mm 3 m/s 721 mmHg 81%
    14:00 +16°C° 0,1 mm 3 m/s 721 mmHg 80%
    15:00 +15°C° 0 mm 2 m/s 721 mmHg 82%
    16:00 +15°C° 0 mm 2 m/s 721 mmHg 83%
    17:00 +14°C° 0 mm 2 m/s 721 mmHg 85%
    18:00 +14°C° 0 mm 2 m/s 722 mmHg 86%
    19:00 +14°C° 0 mm 2 m/s 723 mmHg 86%
    20:00 +13°C° 0 mm 2 m/s 723 mmHg 87%
    21:00 +13°C° 0,1 mm 2 m/s 723 mmHg 88%
    22:00 +13°C° 0,1 mm 2 m/s 724 mmHg 89%
    23:00 +13°C° 0,1 mm 2 m/s 724 mmHg 89%

    31 Maio, Quinta-feira

    Tempo Temperatura Precipitação Vento Pressão Humidade
    00:00 +12°C° 0 mm 2 m/s 724 mmHg 90%
    01:00 +12°C° 0 mm 2 m/s 724 mmHg 90%
    02:00 +12°C° 0 mm 2 m/s 723 mmHg 90%
    03:00 +12°C° 0,1 mm 2 m/s 724 mmHg 90%
    04:00 +12°C° 0,1 mm 2 m/s 724 mmHg 89%
    05:00 +10°C° 0,1 mm 2 m/s 724 mmHg 89%
    06:00 +10°C° 0 mm 2 m/s 725 mmHg 88%
    07:00 +10°C° 0 mm 2 m/s 725 mmHg 87%
    08:00 +10°C° 0 mm 2 m/s 725 mmHg 85%
    09:00 +12°C° 0 mm 2 m/s 726 mmHg 77%
    10:00 +13°C° 0 mm 2 m/s 726 mmHg 69%
    11:00 +14°C° 0 mm 2 m/s 726 mmHg 60%
    12:00 +15°C° 0 mm 2 m/s 725 mmHg 57%
    13:00 +16°C° 0 mm 2 m/s 724 mmHg 55%
    14:00 +16°C° 0 mm 2 m/s 724 mmHg 52%
    15:00 +15°C° 0 mm 2 m/s 724 mmHg 56%
    16:00 +14°C° 0 mm 2 m/s 724 mmHg 60%
    17:00 +13°C° 0 mm 2 m/s 724 mmHg 64%
    18:00 +12°C° 0 mm 2 m/s 724 mmHg 70%
    19:00 +10°C° 0 mm 2 m/s 725 mmHg 75%
    20:00 +9°C° 0 mm 1 m/s 726 mmHg 81%
    21:00 +9°C° 0 mm 1 m/s 726 mmHg 81%
    22:00 +9°C° 0 mm 1 m/s 726 mmHg 82%
    23:00 +8°C° 0 mm 1 m/s 727 mmHg 82%

    1 Junho, Sexta-feira

    Tempo Temperatura Precipitação Vento Pressão Humidade
    00:00 +8°C° 0 mm 1 m/s 726 mmHg 83%
    01:00 +8°C° 0 mm 1 m/s 726 mmHg 84%
    02:00 +8°C° 0 mm 1 m/s 726 mmHg 84%
    03:00 +8°C° 0 mm 1 m/s 726 mmHg 86%
    04:00 +8°C° 0 mm 1 m/s 726 mmHg 87%
    05:00 +7°C° 0 mm 1 m/s 726 mmHg 89%
    06:00 +8°C° 0 mm 1 m/s 726 mmHg 88%
    07:00 +8°C° 0 mm 1 m/s 727 mmHg 87%
    08:00 +8°C° 0 mm 1 m/s 727 mmHg 86%
    09:00 +9°C° 0 mm 1 m/s 727 mmHg 80%
    10:00 +10°C° 0 mm 1 m/s 727 mmHg 75%
    11:00 +11°C° 0 mm 1 m/s 727 mmHg 70%
    12:00 +12°C° 0 mm 1 m/s 726 mmHg 68%
    13:00 +12°C° 0 mm 2 m/s 725 mmHg 66%
    14:00 +13°C° 0 mm 2 m/s 725 mmHg 65%
    15:00 +12°C° 0 mm 2 m/s 725 mmHg 68%
    16:00 +10°C° 0 mm 2 m/s 725 mmHg 71%
    17:00 +10°C° 0 mm 2 m/s 725 mmHg 74%
    18:00 +8°C° 0 mm 2 m/s 725 mmHg 79%
    19:00 +8°C° 0 mm 1 m/s 726 mmHg 84%
    20:00 +7°C° 0 mm 1 m/s 727 mmHg 89%
    21:00 +7°C° 0 mm 1 m/s 727 mmHg 89%
    22:00 +7°C° 0 mm 1 m/s 727 mmHg 89%
    23:00 +7°C° 0 mm 1 m/s 728 mmHg 89%
    Mostrar mais